Location: Abraham Lincoln Continuation High School
(33.9711°N, 117.3662°W)
Time: 10:54:14
(UTC+00:00)

Cosmos 1680 Rocket - Pass Details

Date: 22 January 2021
Orbit: 761 x 780 km, 74.1° (Epoch: 08 March)

Event Time Altitude Azimuth Distance (km) Brightness Sun altitude
Rises 03:47:51 0° 331° (NNW) 3,235 7.0 -32.6°
Reaches altitude 10° 03:50:26 10° 322° (NW) 2,302 6.3 -33.1°
Maximum altitude 03:55:02 32° 260° (W) 1,288 5.1 -34.1°
Enters shadow 03:57:33 21° 214° (SW) 1,658 5.5 -34.6°
